Location: Ay?beleni
(36.6500°N, 30.3000°E)
Time: 09:29:50
(UTC+00:00)

MOS 1 - Pass Details

Date: 09 April 2020
Orbit: 879 x 891 km, 99.2° (Epoch: 31 May)

Event Time Altitude Azimuth Distance (km) Brightness Sun altitude
Exits shadow 17:27:04 - 156° (SSE) 3,042 6.7 -12.2°
Reaches altitude 10° 17:28:23 10° 154° (SSE) 2,529 6.3 -12.5°
Maximum altitude 17:33:57 66° 73° (ENE) 960 4.3 -13.5°
Drops below altitude 10° 17:39:35 10° 352° (N) 2,551 7.1 -14.6°
Sets 17:42:00 0° 350° (N) 3,496 7.9 -15.0°
